[[{"header":{"parameterUnit":"m.s-1","parameterCategory":2,"la1":30.2991,"la2":30.254,"lo1":-89.0895,"lo2":-89.0444,"dy":0.0017,"dx":0.0017,"nx":28,"ny":28,"refTime":"2024-04-30T03:00:00:Z","depth":"0","parameterNumber":2,"parameterNumberName":"U-component_of_CURRENTS"},"data":[0,0,0,0,0,0,0,0,0,0,0,0,0,0,0,0,0,0,0,0,0,0,0,0,0,0,0,0,0,0,0,0,0,0,0,0,0,0,0,0,0,0,0,0,0,0,0,0,0,0,0,0,0,0,0,0,0,0,-0.3331,-0.3331,0,-0.3306,-0.3305,-0.3305,-0.326,-0.326,-0.3259,-0.3259,-0.3172,-0.317,-0.3168,0,0,0,0,0,0,0,0,0,0,0,0,0,-0.3256,-0.3258,-0.3331,-0.3331,-0.3331,-0.3306,-0.3305,-0.3305,-0.326,-0.326,-0.3259,-0.3259,-0.3173,-0.317,-0.3168,0,0,0,0,0,0,0,0,0,0,0,0,0,-0.3261,-0.3258,-0.3331,-0.331,-0.3308,-0.3306,-0.3305,-0.3304,-0.326,-0.326,-0.3259,-0.3259,-0.3173,-0.3171,-0.3168,-0.3162,0,0,-0.3159,-0.3158,0,0,0,0,0,0,0,0,-0.3261,-0.3263,-0.3313,-0.3311,-0.3309,-0.329,-0.3247,-0.3255,-0.3261,-0.3273,-0.3259,-0.3258,-0.3209,-0.3204,-0.3194,-0.3158,-0.3154,-0.3159,-0.3157,-0.3156,-0.3155,0,0,0,0,0,0,0,-0.3261,-0.3264,-0.3316,-0.3313,-0.3311,-0.3273,-0.3273,-0.3248,-0.324,-0.3272,-0.327,-0.3275,-0.3207,-0.3197,-0.3192,-0.3152,-0.3159,-0.3156,-0.3154,-0.3153,-0.3132,-0.3134,0,0,0,0,0,0,-0.3279,-0.3264,-0.3317,-0.3316,-0.3289,-0.3276,-0.3276,-0.3293,-0.3241,-0.3235,-0.3276,-0.3273,-0.3202,-0.3195,-0.3188,-0.3216,-0.3156,-0.3153,-0.3151,-0.3131,-0.3133,-0.3134,0,0,0,0,0,0,-0.3278,-0.3285,-0.3318,-0.3292,-0.3294,-0.3279,-0.3297,-0.3293,-0.3284,-0.3246,-0.3237,-0.3274,-0.3201,-0.3192,-0.3173,-0.3211,-0.3151,-0.3149,-0.313,-0.3132,-0.3133,-0.3248,0,0,0,0,0,0,-0.3276,-0.3285,-0.3298,-0.3294,-0.3297,-0.3328,-0.3298,-0.3293,-0.3291,-0.3287,-0.3241,-0.3232,-0.32,-0.3177,-0.317,-0.3206,-0.3147,-0.3128,-0.3131,-0.3133,-0.3243,-0.3253,-0.3263,0,0,0,0,0,-0.3274,-0.3297,-0.3299,-0.3305,-0.3318,-0.333,-0.3327,-0.3309,-0.3292,-0.3297,-0.3263,-0.3234,-0.3187,-0.3176,-0.3167,-0.3203,-0.3127,-0.313,-0.3133,-0.3238,-0.3251,-0.3262,0,0,0,0,0,0,-0.3268,-0.3296,-0.3296,-0.3327,-0.3334,-0.3324,-0.3326,-0.3316,-0.3293,-0.3284,-0.3241,-0.3231,-0.3235,-0.3197,-0.3186,-0.3203,-0.3156,-0.3157,-0.3239,-0.3251,-0.3261,-0.3241,-0.3144,0,0,0,0,0,-0.3278,-0.3304,-0.3319,-0.3343,-0.3347,-0.3337,-0.3337,-0.333,-0.3315,-0.3304,-0.3275,-0.3247,-0.3239,-0.3226,-0.3207,-0.3207,-0.3122,-0.3226,-0.3236,-0.3245,-0.3222,-0.3158,-0.3159,-0.3143,-0.3143,-0.3143,0,0,-0.3284,-0.3301,-0.3316,-0.3344,-0.3342,-0.3361,-0.3334,-0.3343,-0.3359,-0.3298,-0.33,-0.328,-0.3247,-0.3257,-0.3255,-0.3229,-0.3199,-0.3248,-0.3256,-0.3228,-0.3161,-0.3162,-0.3163,-0.3145,-0.3144,-0.3144,0,0,-0.3303,-0.3324,-0.3347,-0.3362,-0.3376,-0.3377,-0.3385,-0.3383,-0.338,-0.3384,-0.3356,-0.3356,-0.3326,-0.3324,-0.3316,-0.3366,-0.3259,-0.3362,-0.3391,-0.3331,-0.3331,-0.333,-0.3195,-0.3181,-0.3363,-0.3363,-0.3363,0,-0.3312,-0.3345,-0.3353,-0.3379,-0.3392,-0.339,-0.3412,-0.342,-0.3413,-0.34,-0.3396,-0.3361,-0.3363,-0.3364,-0.3399,-0.3392,-0.3296,-0.3355,-0.3343,-0.3341,-0.3338,-0.3199,-0.3182,-0.3369,-0.3368,-0.3367,-0.3367,0,-0.3335,-0.3374,-0.3389,-0.3427,-0.3439,-0.3463,-0.3478,-0.3484,-0.348,-0.3472,-0.3465,-0.3458,-0.3428,-0.3456,-0.3449,-0.3442,-0.3357,-0.3369,-0.3312,-0.3346,-0.3197,-0.3178,-0.3377,-0.3375,-0.3373,-0.3372,0,0,-0.3337,-0.3397,-0.3404,-0.342,-0.3467,-0.347,-0.3509,-0.3519,-0.3493,-0.3517,-0.3476,-0.3534,-0.3504,-0.3493,-0.3488,-0.3456,-0.3389,-0.3407,-0.3401,-0.3268,-0.3171,-0.3036,-0.3,-0.3387,-0.3385,-0.3383,-0.3063,0,-0.3356,-0.341,-0.3434,-0.3476,-0.3503,-0.3516,-0.3529,-0.3534,-0.3523,-0.3483,-0.3497,-0.3468,-0.3527,-0.3501,-0.3493,-0.3407,-0.3345,-0.3469,-0.3159,-0.3148,-0.3023,-0.2978,-0.289,-0.2592,-0.3044,-0.304,-0.3038,0,-0.3367,-0.3405,-0.3455,-0.3481,-0.3484,-0.3504,-0.3484,-0.3497,-0.3466,-0.3446,-0.3436,-0.3411,-0.3401,-0.3433,-0.3305,-0.3368,-0.3277,-0.3209,-0.3195,-0.3011,-0.2978,-0.2636,-0.2538,-0.2551,-0.3007,-0.3009,-0.3011,0,-0.3344,-0.341,-0.3444,-0.3464,-0.3497,-0.3498,-0.3504,-0.3481,-0.3438,-0.3415,-0.3342,-0.3338,-0.3274,-0.322,-0.3126,-0.3196,-0.2911,-0.2993,-0.2767,-0.2753,-0.2585,-0.256,-0.2459,-0.2868,-0.2868,-0.2869,-0.287,0,-0.3357,-0.3377,-0.3434,-0.3453,-0.3429,-0.3472,-0.3418,-0.3415,-0.3363,-0.3255,-0.3316,-0.3194,-0.3214,-0.3069,-0.3033,-0.2799,-0.2836,-0.2723,-0.2661,-0.2619,-0.2602,-0.2531,-0.2586,-0.2857,-0.286,-0.2862,-0.2864,0,-0.3327,-0.3375,-0.3395,-0.3432,-0.3423,-0.3404,-0.3353,-0.3278,-0.3276,-0.3129,-0.3113,-0.3037,-0.2854,-0.2802,-0.2638,-0.2615,-0.2398,-0.2361,-0.2271,-0.2207,-0.2066,-0.2131,-0.1885,-0.1833,-0.2068,-0.2063,-0.2059,0,-0.3308,-0.3334,-0.3355,-0.3296,-0.3307,-0.3281,-0.3208,-0.3226,-0.3134,-0.2993,-0.2878,-0.2706,-0.2519,-0.2231,-0.2155,-0.1988,-0.209,-0.183,-0.1998,-0.1995,-0.2023,-0.2092,-0.2076,-0.1796,-0.1789,-0.1784,-0.178,0,-0.323,-0.3248,-0.3225,-0.3155,-0.3084,-0.3012,-0.2938,-0.2865,-0.2821,-0.2694,-0.2464,-0.2322,-0.207,-0.1861,-0.1686,-0.1615,-0.1815,-0.1718,-0.1754,-0.1811,-0.1837,-0.1778,-0.2034,-0.1735,-0.174,-0.1743,-0.1745,-0.1747,-0.3088,-0.3043,-0.2989,-0.2893,-0.2831,-0.2695,-0.2575,-0.2492,-0.2321,-0.2091,-0.2071,-0.1822,-0.1729,-0.1467,-0.1383,-0.1284,-0.1394,-0.1323,-0.139,-0.1451,-0.1449,-0.1563,-0.1198,-0.12,-0.1201,-0.1202,-0.1203,0,-0.2796,-0.2755,-0.2694,-0.2553,-0.2431,-0.2477,-0.231,-0.2155,-0.1905,-0.1767,-0.1568,-0.1392,-0.1213,-0.1186,-0.1092,-0.1033,-0.1071,-0.103,-0.1163,-0.1157,-0.126,-0.1304,-0.0899,-0.0899,-0.0899,-0.0899,-0.0899,-0.0899,-0.2607,-0.242,-0.2412,-0.214,-0.2088,-0.1861,-0.1742,-0.1571,-0.1438,-0.1145,-0.1028,-0.098,-0.1024,-0.1109,-0.104,-0.0983,-0.1028,-0.0938,-0.0997,-0.1165,-0.1202,-0.1238,-0.1293,-0.0892,-0.0893,-0.0867,-0.0867,-0.0867]},{"header":{"parameterUnit":"m.s-1","parameterCategory":2,"la1":30.2991,"la2":30.254,"lo1":-89.0895,"lo2":-89.0444,"dy":0.0017,"dx":0.0017,"nx":28,"ny":28,"refTime":"2024-04-30T03:00:00:Z","depth":"0","parameterNumber":3,"parameterNumberName":"V-component_of_CURRENTS"},"data":[0,0,0,0,0,0,0,0,0,0,0,0,0,0,0,0,0,0,0,0,0,0,0,0,0,0,0,0,0,0,0,0,0,0,0,0,0,0,0,0,0,0,0,0,0,0,0,0,0,0,0,0,0,0,0,0,0,0,0.0185,0.0187,0,0.0379,0.0381,0.0383,0.0438,0.0437,0.0436,0.0435,0.0648,0.0654,0.0661,0,0,0,0,0,0,0,0,0,0,0,0,0,-0.0095,-0.0091,0.0185,0.0187,0.019,0.0379,0.0381,0.0384,0.0438,0.0437,0.0436,0.0435,0.0646,0.0653,0.0661,0,0,0,0,0,0,0,0,0,0,0,0,0,0.0055,-0.0089,0.0184,0.024,0.0247,0.0378,0.0381,0.0385,0.0439,0.0437,0.0435,0.0434,0.0643,0.0653,0.0662,0.0755,0,0,0.0693,0.0697,0,0,0,0,0,0,0,0,0.0046,0.0065,0.0229,0.0236,0.0244,0.0383,0.0361,0.051,0.0439,0.0365,0.0435,0.0433,0.0562,0.0579,0.0618,0.0765,0.0774,0.0694,0.07,0.0704,0.0707,0,0,0,0,0,0,0,0.0036,0.0057,0.0261,0.0232,0.0241,0.027,0.0289,0.0389,0.047,0.0372,0.0376,0.0399,0.0566,0.0608,0.0624,0.0778,0.0693,0.0702,0.0708,0.0712,0.0998,0.0999,0,0,0,0,0,0,0.0013,0.0048,0.0255,0.0267,0.014,0.0276,0.0298,0.034,0.0469,0.0487,0.04,0.0401,0.0592,0.0612,0.0631,0.0702,0.0704,0.0713,0.0719,0.0996,0.0998,0.1,0,0,0,0,0,0,0.0007,0.0031,0.0247,0.016,0.019,0.0282,0.033,0.0344,0.0382,0.0491,0.0508,0.0421,0.0592,0.0617,0.0722,0.0712,0.0718,0.0727,0.0994,0.0997,0.0999,0.0873,0,0,0,0,0,0,-0.0002,0.0028,0.0048,0.016,0.0194,0.032,0.0332,0.0349,0.0399,0.0402,0.0515,0.0533,0.0592,0.0706,0.0731,0.0725,0.0735,0.0992,0.0995,0.0998,0.0875,0.0871,0.0867,0,0,0,0,0,-0.0012,0.0022,0.0049,0.0074,0.0221,0.0321,0.0342,0.0401,0.0401,0.0426,0.0501,0.053,0.0742,0.0717,0.0746,0.0742,0.0991,0.0995,0.0998,0.0877,0.0871,0.0867,0,0,0,0,0,0,-0.0089,0.0035,0.0065,0.0136,0.0218,0.033,0.0358,0.04,0.0481,0.0478,0.0566,0.0592,0.0677,0.0745,0.0713,0.0838,0.0867,0.0876,0.0765,0.0761,0.0757,0.07,0.0743,0,0,0,0,0,-0.0095,-0.0036,0.0078,0.0133,0.0168,0.0261,0.0307,0.0352,0.0438,0.0471,0.0551,0.0638,0.0721,0.0764,0.0858,0.0936,0.0964,0.0953,0.0948,0.0944,0.0922,0.0953,0.0947,0.1012,0.1012,0.1012,0,0,-0.011,-0.0034,-0.0001,0.012,0.0183,0.023,0.0284,0.0352,0.0383,0.0485,0.055,0.0638,0.0745,0.0822,0.0864,0.0869,0.0947,0.0949,0.0943,0.0923,0.0956,0.0949,0.0942,0.1014,0.1014,0.1013,0,0,-0.0123,-0.0046,-0.0012,0.0052,0.0149,0.0211,0.0225,0.0338,0.0374,0.0466,0.0531,0.0609,0.0754,0.0808,0.0856,0.0896,0.0931,0.0932,0.0854,0.0884,0.0877,0.0872,0.0904,0.0902,0.0918,0.0918,0.0918,0,-0.0152,-0.0093,0.001,0.005,0.0082,0.0191,0.0208,0.0279,0.0409,0.0429,0.0468,0.0644,0.0737,0.0797,0.0808,0.0878,0.0903,0.0851,0.0871,0.0866,0.0862,0.0897,0.0896,0.0912,0.0913,0.0914,0.0914,0,-0.0146,-0.0107,-0.0086,-0.0006,0.0049,0.0087,0.0185,0.0237,0.0293,0.0357,0.044,0.057,0.0656,0.0706,0.0772,0.0794,0.0823,0.0862,0.0861,0.0846,0.0886,0.0887,0.0904,0.0906,0.0908,0.0909,0,0,-0.0195,-0.0106,-0.0103,-0.0098,0.0011,0.0053,0.0099,0.0165,0.0179,0.0296,0.0317,0.0456,0.0511,0.057,0.066,0.0693,0.0702,0.0752,0.0757,0.0744,0.0762,0.0768,0.0771,0.0731,0.0731,0.073,0.08,0,-0.0237,-0.0224,-0.0148,-0.014,-0.0136,-0.0038,-0.0005,0.007,0.0147,0.0209,0.0311,0.0391,0.0463,0.0509,0.0544,0.0691,0.07,0.0679,0.0814,0.0818,0.079,0.077,0.0794,0.0856,0.0802,0.0802,0.0802,0,-0.0268,-0.026,-0.0281,-0.0241,-0.0227,-0.0199,-0.0153,-0.0101,0.0006,0.0067,0.0137,0.0245,0.0335,0.0399,0.0546,0.0528,0.0613,0.0706,0.0712,0.0754,0.0825,0.0868,0.0861,0.0979,0.0805,0.0804,0.0804,0,-0.0395,-0.0353,-0.0392,-0.0374,-0.0302,-0.0299,-0.0257,-0.0164,-0.011,-0.0023,0.0038,0.0135,0.0231,0.0327,0.0527,0.0531,0.0689,0.0725,0.0793,0.0796,0.0862,0.087,0.0947,0.0773,0.0773,0.0773,0.0772,0,-0.0478,-0.0505,-0.0458,-0.0476,-0.0501,-0.0413,-0.0401,-0.0347,-0.0235,-0.0161,-0.005,0.004,0.0218,0.0354,0.0484,0.0648,0.0647,0.0763,0.0805,0.0823,0.0827,0.097,0.1023,0.0775,0.0775,0.0774,0.0774,0,-0.0604,-0.058,-0.0612,-0.0573,-0.0561,-0.0579,-0.047,-0.0425,-0.0339,-0.0233,-0.0199,-0.0014,0.0155,0.0327,0.0527,0.0618,0.0833,0.0808,0.0817,0.0857,0.1005,0.1049,0.1151,0.1224,0.0878,0.0879,0.0879,0,-0.0666,-0.0705,-0.0696,-0.069,-0.0669,-0.0654,-0.0605,-0.0502,-0.0419,-0.0245,-0.018,-0.0011,0.0145,0.0414,0.0594,0.0776,0.0874,0.0886,0.0887,0.0995,0.1077,0.1105,0.1162,0.0941,0.0942,0.0943,0.0943,0,-0.0769,-0.077,-0.0777,-0.0777,-0.0745,-0.0699,-0.0622,-0.0572,-0.0414,-0.0315,-0.0142,-0.0021,0.0237,0.047,0.0681,0.079,0.0967,0.0903,0.1024,0.1121,0.115,0.1248,0.0918,0.0949,0.0948,0.0948,0.0948,0.0947,-0.0823,-0.0842,-0.0828,-0.0821,-0.0784,-0.071,-0.0652,-0.0538,-0.0423,-0.0237,-0.0137,0.0058,0.0374,0.0682,0.0815,0.1059,0.1032,0.1131,0.1175,0.1192,0.1256,0.0922,0.0991,0.0991,0.099,0.099,0.099,0,-0.0847,-0.0842,-0.0845,-0.0807,-0.075,-0.073,-0.0608,-0.0513,-0.0368,-0.0231,-0.0078,0.0257,0.0569,0.0852,0.1196,0.1338,0.1385,0.14,0.1466,0.1512,0.1234,0.1231,0.1344,0.1344,0.1344,0.1344,0.1344,0.1343,-0.0853,-0.0847,-0.0839,-0.0759,-0.072,-0.06,-0.0523,-0.0415,-0.0293,-0.0072,0.0109,0.0249,0.064,0.1234,0.1584,0.1618,0.1775,0.1733,0.1817,0.1649,0.1628,0.1608,0.1618,0.1811,0.1811,0.2096,0.2099,0.2101]}],[{"header":{"parameterUnit":"m.s-1","parameterCategory":2,"la1":30.2991,"la2":30.254,"lo1":-89.0895,"lo2":-89.0444,"dy":0.0017,"dx":0.0017,"nx":28,"ny":28,"refTime":"2024-04-30T03:00:00:Z","depth":"2","parameterNumber":2,"parameterNumberName":"U-component_of_CURRENTS"},"data":[0,0,0,0,0,0,0,0,0,0,0,0,0,0,0,0,0,0,0,0,0,0,0,0,0,0,0,0,0,0,0,0,0,0,0,0,0,0,0,0,0,0,0,0,0,0,0,0,0,0,0,0,0,0,0,0,0,0,-0.1529,-0.153,0,-0.1589,-0.1589,-0.159,-0.1653,-0.1655,-0.1656,-0.1657,-0.1678,-0.1677,-0.1677,0,0,0,0,0,0,0,0,0,0,0,0,0,-0.1319,-0.1323,-0.1528,-0.153,-0.1531,-0.1589,-0.1589,-0.159,-0.1653,-0.1655,-0.1656,-0.1658,-0.1678,-0.1678,-0.1677,0,0,0,0,0,0,0,0,0,0,0,0,0,-0.1393,-0.1324,-0.1528,-0.1574,-0.1579,-0.1589,-0.1589,-0.159,-0.1653,-0.1655,-0.1657,-0.1659,-0.1679,-0.1678,-0.1677,-0.1628,0,0,-0.1673,-0.1673,0,0,0,0,0,0,0,0,-0.1389,-0.14,-0.1566,-0.1571,-0.1576,-0.1621,-0.1523,-0.1603,-0.1652,-0.1619,-0.1657,-0.166,-0.1657,-0.1658,-0.1658,-0.1629,-0.163,-0.1673,-0.1672,-0.1672,-0.1672,0,0,0,0,0,0,0,-0.1384,-0.1397,-0.1547,-0.1567,-0.1573,-0.154,-0.1554,-0.1538,-0.1621,-0.1622,-0.1628,-0.1643,-0.1659,-0.1659,-0.1659,-0.163,-0.1673,-0.1672,-0.1671,-0.1671,-0.1682,-0.1683,0,0,0,0,0,0,-0.1393,-0.1393,-0.1545,-0.1549,-0.1492,-0.1543,-0.1558,-0.16,-0.1622,-0.1629,-0.1641,-0.1646,-0.1659,-0.166,-0.166,-0.174,-0.1672,-0.1671,-0.167,-0.1681,-0.1682,-0.1683,0,0,0,0,0,0,-0.1389,-0.1407,-0.1543,-0.1474,-0.149,-0.1547,-0.1591,-0.16,-0.1641,-0.1638,-0.1644,-0.1679,-0.1661,-0.1661,-0.1683,-0.1736,-0.167,-0.1669,-0.168,-0.1682,-0.1683,-0.1812,0,0,0,0,0,0,-0.1383,-0.1406,-0.1438,-0.1477,-0.1495,-0.1576,-0.159,-0.16,-0.1647,-0.1655,-0.1671,-0.1673,-0.1663,-0.1685,-0.1682,-0.1733,-0.1669,-0.1679,-0.1681,-0.1682,-0.1807,-0.1818,-0.1827,0,0,0,0,0,-0.1376,-0.1412,-0.144,-0.1458,-0.1539,-0.1577,-0.1583,-0.1623,-0.1647,-0.1667,-0.1684,-0.1675,-0.1695,-0.1685,-0.1681,-0.1733,-0.1678,-0.168,-0.1682,-0.1802,-0.1816,-0.1827,0,0,0,0,0,0,-0.1342,-0.1424,-0.1455,-0.1518,-0.1558,-0.1591,-0.1613,-0.1641,-0.1668,-0.1683,-0.1681,-0.1683,-0.1725,-0.1697,-0.1687,-0.1738,-0.1686,-0.1688,-0.1779,-0.1791,-0.1801,-0.1809,-0.1668,0,0,0,0,0,-0.135,-0.1401,-0.1464,-0.1514,-0.1538,-0.158,-0.1603,-0.1635,-0.1664,-0.1681,-0.1694,-0.1704,-0.172,-0.1734,-0.173,-0.175,-0.1686,-0.178,-0.179,-0.1799,-0.1801,-0.1758,-0.1765,-0.169,-0.169,-0.169,0,0,-0.1351,-0.1401,-0.1433,-0.1509,-0.1542,-0.1601,-0.1599,-0.1648,-0.1706,-0.1673,-0.1745,-0.1738,-0.1731,-0.1768,-0.1784,-0.1761,-0.178,-0.1802,-0.1811,-0.1807,-0.1761,-0.1768,-0.1774,-0.1692,-0.1692,-0.1691,0,0,-0.137,-0.1427,-0.1475,-0.1522,-0.1588,-0.1618,-0.1645,-0.1698,-0.1733,-0.1781,-0.1787,-0.1812,-0.1824,-0.1843,-0.1851,-0.1907,-0.1835,-0.1909,-0.1977,-0.1936,-0.1941,-0.1946,-0.1848,-0.1843,-0.1918,-0.1918,-0.1919,0,-0.1369,-0.1458,-0.1488,-0.1553,-0.1606,-0.164,-0.1709,-0.1746,-0.1802,-0.1817,-0.1821,-0.185,-0.1863,-0.1911,-0.1954,-0.1936,-0.1872,-0.1939,-0.195,-0.1954,-0.1956,-0.1855,-0.1847,-0.1925,-0.1924,-0.1923,-0.1923,0,-0.1417,-0.1513,-0.1544,-0.1652,-0.1697,-0.1761,-0.1824,-0.1862,-0.1899,-0.1922,-0.1963,-0.1967,-0.1975,-0.2003,-0.2011,-0.2048,-0.1981,-0.1968,-0.1924,-0.1972,-0.1861,-0.1851,-0.1934,-0.1932,-0.193,-0.1928,0,0,-0.138,-0.1549,-0.1566,-0.1643,-0.1765,-0.1797,-0.1891,-0.1958,-0.1982,-0.2032,-0.2049,-0.2126,-0.2099,-0.2105,-0.2107,-0.2106,-0.2089,-0.2064,-0.2058,-0.1974,-0.1948,-0.1911,-0.1895,-0.2079,-0.2078,-0.2078,-0.1854,0,-0.1424,-0.156,-0.1632,-0.1771,-0.186,-0.1921,-0.1985,-0.204,-0.2064,-0.2073,-0.2095,-0.2106,-0.2147,-0.214,-0.2155,-0.2094,-0.2072,-0.2147,-0.1907,-0.1898,-0.1868,-0.1887,-0.1775,-0.1568,-0.1844,-0.1842,-0.1841,0,-0.1458,-0.1559,-0.1702,-0.1848,-0.188,-0.195,-0.202,-0.2079,-0.2104,-0.2104,-0.2123,-0.211,-0.2136,-0.2143,-0.2077,-0.2118,-0.2053,-0.2005,-0.1994,-0.1911,-0.1846,-0.1569,-0.1539,-0.1823,-0.1824,-0.1825,-0.1827,0,-0.1426,-0.1603,-0.1716,-0.1779,-0.1937,-0.1984,-0.204,-0.2086,-0.208,-0.2113,-0.2065,-0.21,-0.2061,-0.2033,-0.1974,-0.2013,-0.1848,-0.1868,-0.1761,-0.1753,-0.1585,-0.1565,-0.1805,-0.1805,-0.1806,-0.1806,-0.1807,0,-0.1468,-0.1566,-0.1709,-0.1789,-0.1839,-0.1969,-0.1985,-0.2028,-0.2043,-0.1991,-0.2067,-0.1994,-0.2035,-0.1953,-0.1925,-0.1798,-0.1795,-0.1764,-0.1708,-0.1624,-0.1611,-0.1784,-0.1785,-0.1798,-0.18,-0.1801,-0.1803,0,-0.1431,-0.1565,-0.1672,-0.1818,-0.1844,-0.187,-0.1912,-0.1902,-0.1948,-0.1873,-0.1874,-0.1877,-0.18,-0.1793,-0.1703,-0.1691,-0.16,-0.1549,-0.1432,-0.1372,-0.1535,-0.1545,-0.1405,-0.1402,-0.1399,-0.1397,-0.1396,0,-0.1464,-0.1513,-0.1603,-0.1633,-0.1707,-0.1751,-0.1754,-0.1827,-0.1797,-0.1766,-0.1698,-0.1655,-0.1579,-0.145,-0.1435,-0.1353,-0.1452,-0.1216,-0.1317,-0.1542,-0.1501,-0.1514,-0.1527,-0.1105,-0.1101,-0.1098,-0.1095,0,-0.144,-0.1426,-0.1457,-0.1492,-0.1529,-0.1527,-0.1552,-0.1506,-0.1557,-0.1508,-0.1419,-0.1379,-0.1302,-0.1209,-0.1168,-0.1118,-0.1246,-0.115,-0.137,-0.1266,-0.1253,-0.1216,-0.1238,-0.1066,-0.1069,-0.1071,-0.1073,-0.1074,-0.1342,-0.1309,-0.13,-0.1313,-0.133,-0.1304,-0.1247,-0.1268,-0.1195,-0.1132,-0.1161,-0.1089,-0.1109,-0.1002,-0.0937,-0.0919,-0.1018,-0.1008,-0.102,-0.1034,-0.1082,-0.1072,-0.0853,-0.0855,-0.0856,-0.0857,-0.0859,0,-0.1218,-0.1178,-0.1148,-0.1134,-0.1064,-0.1145,-0.1092,-0.1029,-0.0922,-0.0932,-0.089,-0.0797,-0.0752,-0.0782,-0.0704,-0.0706,-0.0715,-0.0695,-0.0714,-0.0741,-0.0765,-0.0804,-0.0498,-0.0497,-0.0496,-0.0496,0,0,-0.1153,-0.1072,-0.1039,-0.0883,-0.0872,-0.076,-0.0721,-0.0665,-0.0645,-0.0579,-0.0577,-0.0679,-0.0725,-0.0606,-0.0587,-0.0528,-0.0627,-0.0498,-0.078,-0.0825,-0.0849,-0.0931,-0.1019,0,0,0,0,0]},{"header":{"parameterUnit":"m.s-1","parameterCategory":2,"la1":30.2991,"la2":30.254,"lo1":-89.0895,"lo2":-89.0444,"dy":0.0017,"dx":0.0017,"nx":28,"ny":28,"refTime":"2024-04-30T03:00:00:Z","depth":"2","parameterNumber":3,"parameterNumberName":"V-component_of_CURRENTS"},"data":[0,0,0,0,0,0,0,0,0,0,0,0,0,0,0,0,0,0,0,0,0,0,0,0,0,0,0,0,0,0,0,0,0,0,0,0,0,0,0,0,0,0,0,0,0,0,0,0,0,0,0,0,0,0,0,0,0,0,-0.047,-0.047,0,-0.0417,-0.0416,-0.0416,-0.038,-0.038,-0.038,-0.038,-0.0232,-0.0228,-0.0224,0,0,0,0,0,0,0,0,0,0,0,0,0,-0.0332,-0.0335,-0.047,-0.047,-0.0469,-0.0417,-0.0416,-0.0415,-0.038,-0.038,-0.038,-0.038,-0.0233,-0.0228,-0.0224,0,0,0,0,0,0,0,0,0,0,0,0,0,-0.0345,-0.0337,-0.047,-0.0447,-0.0445,-0.0418,-0.0416,-0.0415,-0.038,-0.038,-0.038,-0.038,-0.0234,-0.0229,-0.0223,-0.0187,0,0,-0.0205,-0.0202,0,0,0,0,0,0,0,0,-0.0344,-0.035,-0.0451,-0.0449,-0.0446,-0.0408,-0.0313,-0.0335,-0.038,-0.0402,-0.038,-0.038,-0.0283,-0.0274,-0.0261,-0.018,-0.0173,-0.0204,-0.0201,-0.0198,-0.0197,0,0,0,0,0,0,0,-0.0344,-0.035,-0.0446,-0.0451,-0.0448,-0.0368,-0.0372,-0.0316,-0.0339,-0.04,-0.0398,-0.0396,-0.0281,-0.0267,-0.0257,-0.0171,-0.0204,-0.0199,-0.0196,-0.0193,0.0033,0.0035,0,0,0,0,0,0,-0.0368,-0.0351,-0.0448,-0.0445,-0.0397,-0.0372,-0.0375,-0.0418,-0.0342,-0.0332,-0.0396,-0.0395,-0.0277,-0.0264,-0.0252,-0.0143,-0.0198,-0.0193,-0.0189,0.003,0.0033,0.0036,0,0,0,0,0,0,-0.0366,-0.0379,-0.045,-0.0395,-0.04,-0.0376,-0.0422,-0.0417,-0.0409,-0.0341,-0.0328,-0.0395,-0.0276,-0.026,-0.0187,-0.0139,-0.019,-0.0185,0.0028,0.0031,0.0035,0.0035,0,0,0,0,0,0,-0.0363,-0.0379,-0.0415,-0.0399,-0.0404,-0.043,-0.0423,-0.0416,-0.0409,-0.0406,-0.0335,-0.0322,-0.0275,-0.0196,-0.0182,-0.0132,-0.018,0.0024,0.0029,0.0034,0.0032,0.0038,0.0044,0,0,0,0,0,-0.0359,-0.0412,-0.0419,-0.0429,-0.0458,-0.043,-0.0423,-0.0402,-0.0409,-0.0397,-0.0344,-0.0324,-0.0156,-0.019,-0.0173,-0.0121,0.0022,0.0028,0.0033,0.0029,0.0037,0.0044,0,0,0,0,0,0,-0.0374,-0.0413,-0.042,-0.0486,-0.0456,-0.0424,-0.0424,-0.041,-0.0363,-0.0363,-0.0303,-0.0284,-0.02,-0.0161,-0.0201,-0.0039,-0.0059,-0.005,-0.0067,-0.006,-0.0054,-0.0069,-0.0175,0,0,0,0,0,-0.0397,-0.045,-0.0443,-0.0491,-0.0484,-0.0456,-0.0446,-0.0427,-0.0386,-0.0369,-0.0314,-0.0243,-0.0162,-0.0116,-0.005,0.0031,0.0035,0.0081,0.0087,0.0092,0.0094,0.0158,0.0168,0.0054,0.0054,0.0054,0,0,-0.042,-0.0445,-0.0477,-0.0496,-0.048,-0.0449,-0.045,-0.0437,-0.0392,-0.0357,-0.0285,-0.0231,-0.0139,-0.0043,0.0,-0.0004,0.0118,0.0099,0.0102,0.0102,0.0165,0.0175,0.0185,0.0058,0.0057,0.0057,0,0,-0.0453,-0.051,-0.0539,-0.0515,-0.0494,-0.0463,-0.0462,-0.0423,-0.039,-0.0319,-0.027,-0.0189,-0.0082,0.0006,0.0063,0.0143,0.0138,0.0166,0.0196,0.0257,0.0266,0.0274,0.0243,0.0249,0.0179,0.018,0.018,0,-0.0471,-0.0515,-0.0532,-0.0521,-0.0498,-0.0469,-0.0444,-0.0397,-0.033,-0.0287,-0.0293,-0.0112,-0.0048,0.0097,0.0128,0.0157,0.0151,0.0155,0.0261,0.027,0.0278,0.0245,0.0251,0.018,0.018,0.018,0.018,0,-0.0491,-0.0516,-0.0524,-0.0507,-0.0475,-0.0457,-0.0392,-0.0343,-0.0306,-0.0251,-0.0131,-0.0043,0.0065,0.0111,0.0144,0.0258,0.0216,0.0247,0.0231,0.0289,0.025,0.0256,0.0181,0.0181,0.0181,0.0181,0,0,-0.0556,-0.0546,-0.0545,-0.0524,-0.0469,-0.0441,-0.036,-0.0269,-0.0215,-0.0131,-0.0056,0.0099,0.0122,0.0188,0.0248,0.0312,0.0348,0.0298,0.0301,0.0243,0.0407,0.0414,0.042,0.039,0.0393,0.0395,0.0336,0,-0.0557,-0.0551,-0.0529,-0.048,-0.0465,-0.0395,-0.0318,-0.0228,-0.0157,-0.0076,0.0034,0.0121,0.0163,0.02,0.0278,0.0326,0.0372,0.0356,0.0381,0.038,0.0363,0.0433,0.0415,0.0367,0.0342,0.0343,0.0344,0,-0.057,-0.0563,-0.0543,-0.0471,-0.0454,-0.0405,-0.0288,-0.0214,-0.0083,-0.0034,0.0072,0.0129,0.0242,0.0254,0.0373,0.0351,0.038,0.0412,0.0412,0.0428,0.0403,0.0321,0.0379,0.0354,0.0353,0.0352,0.0352,0,-0.0611,-0.0562,-0.0552,-0.053,-0.0444,-0.0399,-0.0333,-0.0207,-0.0146,-0.0024,0.0003,0.015,0.0187,0.0282,0.0337,0.0353,0.0422,0.0457,0.0488,0.0484,0.0482,0.0476,0.0548,0.0548,0.0548,0.0549,0.0549,0,-0.0636,-0.0615,-0.0572,-0.057,-0.051,-0.0436,-0.036,-0.0269,-0.017,-0.0113,0.0004,0.0048,0.0196,0.0251,0.0319,0.04,0.0409,0.0498,0.0499,0.0477,0.0472,0.0485,0.0479,0.0546,0.0547,0.0547,0.0548,0,-0.0683,-0.0671,-0.0641,-0.057,-0.0543,-0.05,-0.0401,-0.0347,-0.0254,-0.0191,-0.0166,-0.0043,0.0044,0.0161,0.0281,0.0358,0.0445,0.0469,0.0385,0.0382,0.0457,0.0452,0.0515,0.0516,0.0516,0.0516,0.0517,0,-0.07,-0.0711,-0.0659,-0.065,-0.0622,-0.0557,-0.0515,-0.0402,-0.036,-0.0253,-0.0241,-0.0141,-0.0054,0.0103,0.0264,0.0392,0.0417,0.0439,0.0523,0.0474,0.0468,0.0462,0.0456,0.0477,0.0477,0.0477,0.0477,0,-0.0714,-0.0715,-0.0705,-0.0701,-0.0675,-0.0625,-0.0568,-0.0553,-0.0438,-0.0382,-0.0315,-0.0241,-0.0067,0.0104,0.0278,0.0355,0.043,0.0444,0.0439,0.0507,0.0441,0.0433,0.0429,0.0476,0.0476,0.0476,0.0476,0.0476,-0.0722,-0.0725,-0.0734,-0.0723,-0.071,-0.069,-0.0653,-0.0607,-0.0546,-0.0441,-0.0386,-0.024,-0.0082,0.0209,0.032,0.044,0.0457,0.0501,0.05,0.05,0.0526,0.0468,0.0505,0.0505,0.0505,0.0505,0.0505,0,-0.0694,-0.0723,-0.0738,-0.0738,-0.0733,-0.0709,-0.0675,-0.0631,-0.0571,-0.0472,-0.0366,-0.0164,0.0028,0.0194,0.0395,0.0509,0.0508,0.052,0.0503,0.0502,0.0502,0.0528,0.0507,0.0508,0.0508,0.0508,0,0,-0.0693,-0.0715,-0.0733,-0.0737,-0.0742,-0.0717,-0.0696,-0.0633,-0.0548,-0.0435,-0.0307,-0.0153,0.0046,0.0194,0.0326,0.0426,0.0434,0.043,0.0414,0.0375,0.0374,0.0473,0.051,0,0,0,0,0]}],[{"header":{"parameterUnit":"m.s-1","parameterCategory":2,"la1":30.2991,"la2":30.254,"lo1":-89.0895,"lo2":-89.0444,"dy":0.0017,"dx":0.0017,"nx":28,"ny":28,"refTime":"2024-04-30T03:00:00:Z","depth":"4","parameterNumber":2,"parameterNumberName":"U-component_of_CURRENTS"},"data":[0,0,0,0,0,0,0,0,0,0,0,0,0,0,0,0,0,0,0,0,0,0,0,0,0,0,0,0,0,0,0,0,0,0,0,0,0,0,0,0,0,0,0,0,0,0,0,0,0,0,0,0,0,0,0,0,0,0,-0.0488,-0.0488,0,-0.0494,-0.0495,-0.0495,-0.0499,-0.0499,-0.0499,-0.0498,-0.0517,-0.0517,-0.0518,0,0,0,0,0,0,0,0,0,0,0,0,0,-0.0503,-0.0503,-0.0488,-0.0488,-0.0488,-0.0494,-0.0495,-0.0495,-0.0499,-0.0499,-0.0499,-0.0498,-0.0517,-0.0517,-0.0518,0,0,0,0,0,0,0,0,0,0,0,0,0,-0.0504,-0.0503,-0.0488,-0.0489,-0.0489,-0.0494,-0.0495,-0.0495,-0.0499,-0.0499,-0.0499,-0.0498,-0.0516,-0.0517,-0.0518,-0.053,0,0,-0.0521,-0.0522,0,0,0,0,0,0,0,0,-0.0504,-0.0504,-0.0489,-0.0489,-0.0489,-0.0493,-0.0507,-0.0507,-0.0499,-0.0498,-0.0498,-0.0498,-0.0509,-0.051,-0.0515,-0.0531,-0.0532,-0.0521,-0.0522,-0.0522,-0.0523,0,0,0,0,0,0,0,-0.0504,-0.0504,-0.0493,-0.0489,-0.0489,-0.0497,-0.0497,-0.0507,-0.0507,-0.0498,-0.0498,-0.0495,-0.0509,-0.0514,-0.0516,-0.0532,-0.0521,-0.0522,-0.0523,-0.0523,-0.0609,-0.061,0,0,0,0,0,0,-0.0497,-0.0504,-0.0493,-0.0493,-0.0493,-0.0496,-0.0496,-0.0494,-0.0507,-0.0507,-0.0495,-0.0495,-0.0513,-0.0515,-0.0517,-0.0574,-0.0522,-0.0523,-0.0524,-0.0607,-0.0609,-0.0611,0,0,0,0,0,0,-0.0498,-0.0496,-0.0492,-0.0496,-0.0496,-0.0496,-0.0494,-0.0494,-0.0502,-0.0504,-0.0505,-0.0501,-0.0513,-0.0515,-0.0531,-0.0573,-0.0524,-0.0525,-0.0605,-0.0608,-0.061,-0.0663,0,0,0,0,0,0,-0.0498,-0.0497,-0.0495,-0.0496,-0.0496,-0.0494,-0.0494,-0.0495,-0.0499,-0.0499,-0.051,-0.0511,-0.0513,-0.053,-0.0532,-0.0574,-0.0525,-0.0603,-0.0606,-0.0609,-0.0659,-0.0667,-0.0673,0,0,0,0,0,-0.0499,-0.0493,-0.0495,-0.0493,-0.0492,-0.0494,-0.0495,-0.0496,-0.05,-0.0502,-0.0514,-0.0511,-0.0552,-0.0531,-0.0534,-0.0577,-0.0602,-0.0605,-0.0609,-0.0656,-0.0665,-0.0673,0,0,0,0,0,0,-0.0493,-0.0493,-0.0495,-0.0488,-0.0491,-0.0494,-0.0493,-0.0499,-0.0511,-0.0513,-0.052,-0.0522,-0.0564,-0.0557,-0.0534,-0.0613,-0.0582,-0.0586,-0.0616,-0.0625,-0.0633,-0.063,-0.0526,0,0,0,0,0,-0.0492,-0.0491,-0.0492,-0.0487,-0.0488,-0.0494,-0.0495,-0.0499,-0.0507,-0.0512,-0.0524,-0.0545,-0.0583,-0.0589,-0.0614,-0.064,-0.0631,-0.0674,-0.0681,-0.0687,-0.0689,-0.0701,-0.0709,-0.0623,-0.0623,-0.0623,0,0,-0.0487,-0.0487,-0.0486,-0.0487,-0.0489,-0.0493,-0.0495,-0.0497,-0.0515,-0.0513,-0.0542,-0.0572,-0.0598,-0.0642,-0.0659,-0.0636,-0.071,-0.0692,-0.0697,-0.0695,-0.0706,-0.0714,-0.0721,-0.0626,-0.0625,-0.0625,0,0,-0.0474,-0.0478,-0.0473,-0.0479,-0.0482,-0.0491,-0.0494,-0.0505,-0.0524,-0.055,-0.0576,-0.0616,-0.065,-0.0684,-0.0706,-0.0762,-0.0756,-0.0788,-0.0812,-0.0825,-0.0832,-0.0838,-0.0846,-0.0852,-0.0781,-0.0781,-0.0781,0,-0.0464,-0.046,-0.0471,-0.047,-0.0477,-0.0492,-0.0494,-0.0519,-0.054,-0.0569,-0.0561,-0.0653,-0.0671,-0.0745,-0.0778,-0.0779,-0.0786,-0.0776,-0.0834,-0.0839,-0.0844,-0.085,-0.0856,-0.0784,-0.0784,-0.0784,-0.0783,0,-0.045,-0.0449,-0.0447,-0.0456,-0.0471,-0.0472,-0.0507,-0.0537,-0.0564,-0.0594,-0.0669,-0.0698,-0.0751,-0.0781,-0.0799,-0.0869,-0.0863,-0.0848,-0.0807,-0.0856,-0.086,-0.0865,-0.0789,-0.0787,-0.0787,-0.0786,0,0,-0.0411,-0.0431,-0.0429,-0.0439,-0.0464,-0.0476,-0.0522,-0.057,-0.061,-0.0652,-0.0703,-0.0788,-0.0815,-0.0842,-0.0878,-0.0898,-0.0948,-0.0897,-0.0896,-0.0897,-0.0984,-0.091,-0.0908,-0.0948,-0.0949,-0.095,-0.0975,0,-0.039,-0.0386,-0.0412,-0.0427,-0.0427,-0.0479,-0.0521,-0.0578,-0.0629,-0.0685,-0.0748,-0.0811,-0.0837,-0.0874,-0.0903,-0.0945,-0.0964,-0.0943,-0.0943,-0.0943,-0.0864,-0.0912,-0.0953,-0.0978,-0.0979,-0.098,-0.0981,0,-0.0358,-0.0364,-0.0364,-0.0418,-0.0427,-0.0455,-0.0537,-0.0582,-0.0676,-0.0715,-0.0789,-0.0837,-0.0916,-0.0906,-0.0983,-0.0974,-0.0989,-0.1001,-0.1002,-0.0915,-0.0878,-0.0919,-0.099,-0.0989,-0.0988,-0.0988,-0.0987,0,-0.0308,-0.0336,-0.0338,-0.0349,-0.0406,-0.0448,-0.0505,-0.0596,-0.0648,-0.0746,-0.0783,-0.087,-0.0917,-0.0953,-0.1005,-0.1001,-0.1059,-0.1041,-0.0984,-0.0979,-0.1012,-0.1006,-0.1074,-0.1074,-0.1074,-0.1074,-0.1074,0,-0.0262,-0.0268,-0.0322,-0.0318,-0.036,-0.0428,-0.0496,-0.0561,-0.0654,-0.0716,-0.0803,-0.0852,-0.0934,-0.0984,-0.1011,-0.1018,-0.1061,-0.0997,-0.0982,-0.1036,-0.1032,-0.1016,-0.1009,-0.1074,-0.1074,-0.1074,-0.1074,0,-0.0202,-0.0219,-0.0225,-0.0292,-0.0326,-0.0363,-0.0489,-0.0542,-0.0633,-0.0712,-0.0747,-0.0854,-0.0917,-0.0977,-0.1034,-0.1015,-0.1029,-0.1016,-0.1078,-0.1065,-0.0938,-0.0933,-0.0948,-0.0945,-0.0943,-0.0942,-0.094,0,-0.0171,-0.0167,-0.0203,-0.0216,-0.0252,-0.0333,-0.0391,-0.051,-0.0572,-0.0708,-0.0736,-0.0832,-0.0895,-0.0919,-0.0975,-0.1001,-0.0992,-0.0988,-0.0961,-0.0942,-0.0926,-0.0925,-0.0924,-0.0937,-0.0937,-0.0936,-0.0936,0,-0.0139,-0.014,-0.0133,-0.0166,-0.0214,-0.0279,-0.0383,-0.0419,-0.0558,-0.0634,-0.0719,-0.0771,-0.0831,-0.0879,-0.0907,-0.0924,-0.0984,-0.0966,-0.097,-0.0945,-0.0929,-0.0915,-0.0916,-0.0929,-0.093,-0.093,-0.0931,0,-0.0113,-0.0096,-0.0098,-0.0129,-0.0167,-0.0231,-0.0291,-0.0392,-0.0466,-0.0619,-0.0639,-0.0742,-0.0823,-0.0839,-0.0866,-0.0875,-0.086,-0.0831,-0.0842,-0.085,-0.0806,-0.0771,-0.0715,0,0,0,0,0,-0.0084,-0.0089,-0.0101,-0.0113,-0.0142,-0.0192,-0.0292,-0.0358,-0.048,-0.0517,-0.0586,-0.0645,-0.0703,-0.0751,-0.0741,-0.0806,-0.085,-0.0789,-0.0819,-0.089,-0.0898,-0.0856,0,0,0,0,0,0,-0.0077,-0.0078,-0.0086,-0.0108,-0.0119,-0.0179,-0.0236,-0.0316,-0.0356,-0.0468,-0.0505,-0.0584,-0.0648,-0.0695,-0.072,-0.0732,-0.0734,-0.0846,-0.0844,-0.0886,-0.0893,-0.09,-0.0859,0,0,0,0,0]},{"header":{"parameterUnit":"m.s-1","parameterCategory":2,"la1":30.2991,"la2":30.254,"lo1":-89.0895,"lo2":-89.0444,"dy":0.0017,"dx":0.0017,"nx":28,"ny":28,"refTime":"2024-04-30T03:00:00:Z","depth":"4","parameterNumber":3,"parameterNumberName":"V-component_of_CURRENTS"},"data":[0,0,0,0,0,0,0,0,0,0,0,0,0,0,0,0,0,0,0,0,0,0,0,0,0,0,0,0,0,0,0,0,0,0,0,0,0,0,0,0,0,0,0,0,0,0,0,0,0,0,0,0,0,0,0,0,0,0,-0.0147,-0.0148,0,-0.0195,-0.0195,-0.0196,-0.016,-0.0158,-0.0157,-0.0155,-0.0141,-0.0142,-0.0143,0,0,0,0,0,0,0,0,0,0,0,0,0,-0.0038,-0.004,-0.0147,-0.0148,-0.0148,-0.0195,-0.0195,-0.0196,-0.016,-0.0158,-0.0156,-0.0155,-0.014,-0.0142,-0.0143,0,0,0,0,0,0,0,0,0,0,0,0,0,-0.0085,-0.0041,-0.0147,-0.0136,-0.0136,-0.0194,-0.0195,-0.0196,-0.016,-0.0158,-0.0156,-0.0154,-0.014,-0.0141,-0.0143,-0.0199,0,0,-0.0148,-0.0148,0,0,0,0,0,0,0,0,-0.0082,-0.0089,-0.0137,-0.0137,-0.0137,-0.0169,-0.0151,-0.0194,-0.0161,-0.0151,-0.0155,-0.0153,-0.0146,-0.0147,-0.0162,-0.0198,-0.0197,-0.0148,-0.0149,-0.015,-0.015,0,0,0,0,0,0,0,-0.0079,-0.0087,-0.0165,-0.0138,-0.0138,-0.0134,-0.0137,-0.016,-0.0159,-0.0151,-0.0149,-0.0156,-0.0145,-0.016,-0.0161,-0.0197,-0.0148,-0.0149,-0.015,-0.0151,-0.0271,-0.0273,0,0,0,0,0,0,-0.0076,-0.0084,-0.0164,-0.0167,-0.0104,-0.0137,-0.0142,-0.0161,-0.016,-0.0159,-0.0158,-0.0154,-0.0159,-0.0159,-0.016,-0.0207,-0.0149,-0.0151,-0.0152,-0.0269,-0.0271,-0.0274,0,0,0,0,0,0,-0.0074,-0.0084,-0.0162,-0.0126,-0.0135,-0.0142,-0.0163,-0.0163,-0.0171,-0.0166,-0.0162,-0.0164,-0.0157,-0.0158,-0.0189,-0.0206,-0.0152,-0.0153,-0.0266,-0.027,-0.0273,-0.0313,0,0,0,0,0,0,-0.0071,-0.0083,-0.0098,-0.0126,-0.0137,-0.0203,-0.0166,-0.0166,-0.0179,-0.0174,-0.0171,-0.0168,-0.0155,-0.0187,-0.0191,-0.0208,-0.0154,-0.0263,-0.0268,-0.0272,-0.0309,-0.0317,-0.0324,0,0,0,0,0,-0.0067,-0.0103,-0.0099,-0.0108,-0.0158,-0.0205,-0.0211,-0.0206,-0.0181,-0.0201,-0.0199,-0.0167,-0.0216,-0.0191,-0.0194,-0.0212,-0.0261,-0.0266,-0.0271,-0.0305,-0.0315,-0.0324,0,0,0,0,0,0,-0.0069,-0.0104,-0.0099,-0.0145,-0.0173,-0.0199,-0.022,-0.0214,-0.023,-0.0221,-0.0202,-0.0201,-0.0233,-0.0231,-0.0203,-0.0263,-0.0232,-0.0238,-0.0257,-0.0266,-0.0274,-0.0261,-0.0156,0,0,0,0,0,-0.0077,-0.0108,-0.0139,-0.0175,-0.0192,-0.0205,-0.0222,-0.0223,-0.024,-0.0244,-0.0245,-0.025,-0.0263,-0.0268,-0.0285,-0.0325,-0.0268,-0.034,-0.0348,-0.0354,-0.0349,-0.0279,-0.0278,-0.0291,-0.029,-0.029,0,0,-0.0089,-0.0111,-0.0129,-0.0177,-0.0196,-0.0239,-0.021,-0.0247,-0.0275,-0.0243,-0.0283,-0.0281,-0.0282,-0.032,-0.0334,-0.0315,-0.0323,-0.036,-0.0365,-0.0357,-0.0284,-0.0282,-0.028,-0.0294,-0.0293,-0.0293,0,0,-0.0131,-0.0148,-0.0187,-0.0217,-0.0254,-0.0268,-0.0278,-0.0313,-0.0318,-0.0367,-0.0341,-0.0348,-0.0389,-0.038,-0.0381,-0.0449,-0.0369,-0.046,-0.0483,-0.0416,-0.0413,-0.041,-0.033,-0.0319,-0.046,-0.0461,-0.0461,0,-0.0139,-0.0195,-0.0207,-0.0254,-0.028,-0.0281,-0.0329,-0.035,-0.0388,-0.0389,-0.0387,-0.0412,-0.0414,-0.0425,-0.0451,-0.0462,-0.0403,-0.044,-0.042,-0.0416,-0.0412,-0.0331,-0.0318,-0.0463,-0.0463,-0.0463,-0.0462,0,-0.0209,-0.0255,-0.0285,-0.0338,-0.0368,-0.0414,-0.0439,-0.0463,-0.0467,-0.047,-0.0488,-0.0494,-0.0492,-0.0506,-0.0502,-0.0484,-0.0444,-0.0434,-0.0382,-0.0412,-0.0327,-0.0312,-0.0467,-0.0466,-0.0465,-0.0464,0,0,-0.0219,-0.0314,-0.0323,-0.0354,-0.0413,-0.0442,-0.0491,-0.0521,-0.0519,-0.0554,-0.0544,-0.0583,-0.0551,-0.0552,-0.0537,-0.0495,-0.0421,-0.0457,-0.0452,-0.0353,-0.025,-0.0272,-0.0258,-0.0393,-0.0391,-0.039,-0.0199,0,-0.0266,-0.0364,-0.0396,-0.0474,-0.0523,-0.0536,-0.0571,-0.059,-0.0591,-0.0585,-0.057,-0.0566,-0.0578,-0.0562,-0.0526,-0.0443,-0.0387,-0.0473,-0.0258,-0.0252,-0.0247,-0.0245,-0.0384,-0.0188,-0.0184,-0.0182,-0.018,0,-0.0317,-0.0375,-0.0469,-0.0529,-0.0547,-0.059,-0.0608,-0.0638,-0.0624,-0.0617,-0.0599,-0.0569,-0.0528,-0.0527,-0.0391,-0.0438,-0.0352,-0.0289,-0.0279,-0.0274,-0.0249,-0.0157,-0.0154,-0.0156,-0.0158,-0.0159,-0.0161,0,-0.0314,-0.0414,-0.0485,-0.0515,-0.0591,-0.0617,-0.0642,-0.0646,-0.0643,-0.062,-0.0592,-0.0544,-0.0494,-0.0402,-0.03,-0.0323,-0.0124,-0.013,-0.0066,-0.0065,-0.0078,-0.0084,-0.0018,-0.0018,-0.0018,-0.0019,-0.0019,0,-0.035,-0.0403,-0.0491,-0.0534,-0.0582,-0.0625,-0.0647,-0.0659,-0.0642,-0.0615,-0.0598,-0.0549,-0.0456,-0.0345,-0.0262,-0.012,-0.0085,-0.0059,-0.0018,-0.0103,-0.0114,-0.0067,-0.0075,-0.0012,-0.0013,-0.0015,-0.0016,0,-0.0349,-0.0414,-0.0487,-0.057,-0.0594,-0.0622,-0.0656,-0.0652,-0.0646,-0.0602,-0.0588,-0.051,-0.0378,-0.0278,-0.0099,-0.0059,0.0069,0.0113,0.0033,0.0064,0.0081,0.0068,0.0218,0.0219,0.0219,0.022,0.022,0,-0.0363,-0.0409,-0.0501,-0.0532,-0.0578,-0.0623,-0.0642,-0.0656,-0.0638,-0.0574,-0.0535,-0.0416,-0.0358,-0.0109,-0.003,0.014,0.014,0.0213,0.0114,0.0081,0.0106,0.0091,0.0078,0.0221,0.0221,0.0222,0.0222,0,-0.0368,-0.04,-0.0446,-0.0527,-0.0565,-0.0595,-0.0621,-0.0603,-0.0589,-0.0577,-0.0461,-0.0366,-0.0215,-0.0085,0.0043,0.0151,0.016,0.0219,0.0218,0.0126,0.0087,0.0107,0.0093,0.0224,0.0224,0.0224,0.0223,0,-0.0343,-0.0363,-0.0429,-0.0489,-0.0534,-0.0557,-0.0578,-0.055,-0.0528,-0.0465,-0.0418,-0.0294,-0.0219,-0.0074,0.0044,0.0139,0.0146,0.0156,0.0158,0.0157,0.0045,-0.002,0.0133,0,0,0,0,0,-0.0299,-0.033,-0.0393,-0.0451,-0.0498,-0.0531,-0.0552,-0.0562,-0.0543,-0.0454,-0.0437,-0.0305,-0.0143,-0.0072,0.0026,0.0035,0.0148,0.0148,0.0158,0.0237,0.0234,0.0105,0,0,0,0,0,0,-0.0277,-0.0321,-0.0373,-0.0409,-0.0442,-0.0482,-0.0494,-0.049,-0.044,-0.0415,-0.032,-0.0287,-0.0123,-0.0182,0.0033,0.0058,0.0072,0.0221,0.0222,0.0238,0.0236,0.0234,0.01,0,0,0,0,0]}]]